Simultaneous Nadir Overpasses (SNOs) Predictions

Prediction of SNOs between GOES-17 and AQUA Satellite Orbit:

Table of predicted SNOs for the next 14.0 days since TLE Epoch: 5/27/2023
Index Date Time (GOES-17) GOES-17 Lat,Lon AQUA Lat,Lon Distance(km) Time Diff (sec)
1 05/27/2023 08:54:51 0.00,-104.72 0.32,-106.14 161.69 80
2 05/29/2023 08:38:09 0.00,-104.72 -0.42,-102.72 227.81 80
3 05/29/2023 20:59:04 -0.00,-104.71 -0.68,-107.78 349.66 80
4 05/31/2023 20:47:42 -0.01,-104.71 0.09,-104.36 40.30 80
5 06/02/2023 20:33:39 -0.01,-104.71 0.83,-100.94 430.01 80
6 06/03/2023 08:54:25 0.01,-104.72 0.29,-105.96 140.96 80
7 06/05/2023 08:37:42 0.02,-104.71 -0.48,-102.54 248.25 80
8 06/05/2023 20:58:36 -0.02,-104.70 -0.66,-107.59 329.96 80
9 06/07/2023 20:47:12 -0.02,-104.68 0.07,-104.16 59.25 80
10 06/09/2023 20:33:08 -0.02,-104.68 0.83,-100.73 448.83 80
